EUTELSAT 172B

Last updated on Sun Jun 21 2026 00:03:07 GMT+0000 (Coordinated Universal Time)

1 42741U 17029B 26171.35478845 -.00000010 00000+0 00000+0 0 9998 2 42741 0.0377 155.9076 0000037 181.7147 230.6812 1.00270918 33779
UTC large
Height (km)
Speed (km/s)
/
Latitude / Longitude
Inclination (degrees)
Orbital Period (minutes)
Azimuth
Elevation
Range (km)
Doppler Factor

Next 0 passes for location: London (51.5072 / 0.1276)

No passes found over London.
EUTELSAT 172B